Weather History for Cincinnati, OH

Change the Weather History Date:

Saturday, March 8, 2014

  Actual Average Record
Temperature  
Mean Temperature 42 °F -  
Max Temperature 57 °F 51 °F 80 °F (1974)
Min Temperature 28 °F 31 °F 3 °F (1960)
Degree Days  
Heating Degree Days 22    
Moisture  
Dew Point 31 °F    
Average Humidity 71    
Maximum Humidity 100    
Minimum Humidity 36    
Precipitation  
Precipitation 0.00 in - - ()
Sea Level Pressure  
Sea Level Pressure 30.07 in    
Wind  
Wind Speed 4 mph (WNW)    
Max Wind Speed 16 mph    
Max Gust Speed 24 mph    
Visibility 8 miles    
Events      
Averages and records for this station are not official NWS values.
T = Trace of Precipitation, MM = Missing Value Source: NWS Daily Summary

Daily Weather History Graph

Daily Weather History Graph

Search for Another Location

Airport:

Trip Planner

Search our weather history database for the weather conditions in past years. The results will help you decide how hot, cold, wet, or windy it might be!

Date:

Astronomy

Mar. 08, 2014 Rise Set
Actual Time 6:59 AM EST 6:37 PM EST
Civil Twilight 6:33 AM EST 7:04 PM EST
Nautical Twilight 6:02 AM EST 7:35 PM EST
Astronomical Twilight 5:31 AM EST 8:06 PM EST
Moon 11:43 AM EST (3/8) 1:32 AM EST (3/8)
Length of Visible Light 12h 31m
Length of Day
11h 37m
First Quarter, 51% of the Moon is Illuminated
Mar 8
First Quarter
Mar 16
Full
Mar 23
Last Quarter
Mar 30
New
Apr 7
First Quarter

Hourly Weather History & Observations

Time (EST) Temp. Windchill Dew Point Humidity Pressure Visibility Wind Dir Wind Speed Gust Speed Precip Events Conditions
12:53 AM 32.0 °F - 28.9 °F 88% 30.02 in 10.0 mi Calm Calm - N/A   Clear
1:53 AM 30.9 °F - 28.9 °F 92% 30.02 in 10.0 mi Calm Calm - N/A   Clear
2:53 AM 30.0 °F - 28.0 °F 92% 30.02 in 10.0 mi Calm Calm - N/A   Clear
3:53 AM 30.0 °F - 28.0 °F 92% 30.01 in 7.0 mi Calm Calm - N/A   Clear
4:53 AM 28.0 °F - 27.0 °F 96% 30.02 in 8.0 mi Calm Calm - N/A   Clear
5:53 AM 28.9 °F - 26.1 °F 89% 30.04 in 8.0 mi Calm Calm - N/A   Clear
6:53 AM 28.0 °F - 27.0 °F 96% 30.06 in 10.0 mi Calm Calm - N/A   Clear
7:53 AM 28.9 °F - 28.9 °F 100% 30.08 in 7.0 mi Calm Calm - N/A   Clear
8:53 AM 36.0 °F - 33.1 °F 89% 30.09 in 10.0 mi Calm Calm - N/A   Clear
9:53 AM 41.0 °F - 35.1 °F 79% 30.09 in 9.0 mi Calm Calm - N/A   Clear
10:53 AM 50.0 °F - 34.0 °F 54% 30.07 in 10.0 mi SSW 4.6 mph - N/A   Clear
11:53 AM 53.1 °F - 35.1 °F 50% 30.06 in 10.0 mi South 9.2 mph - N/A   Partly Cloudy
12:53 PM 55.0 °F - 30.9 °F 40% 30.05 in 10.0 mi SSW 9.2 mph - N/A   Clear
1:53 PM 55.9 °F - 30.9 °F 39% 30.03 in 10.0 mi Variable 6.9 mph - N/A   Scattered Clouds
2:53 PM 57.0 °F - 30.0 °F 36% 30.03 in 10.0 mi WSW 12.7 mph 19.6 mph N/A   Partly Cloudy
3:53 PM 57.0 °F - 30.0 °F 36% 30.02 in 10.0 mi WNW 10.4 mph - N/A   Overcast
4:53 PM 54.0 °F - 30.0 °F 40% 30.03 in 10.0 mi WSW 11.5 mph - N/A   Mostly Cloudy
5:53 PM 53.1 °F - 30.9 °F 43% 30.05 in 10.0 mi West 8.1 mph - N/A   Overcast
6:53 PM 48.9 °F - 36.0 °F 61% 30.08 in 7.0 mi NW 9.2 mph - N/A   Overcast
7:53 PM 45.0 °F 37.9 °F 36.0 °F 71% 30.11 in 4.0 mi North 16.1 mph 24.2 mph N/A   Haze
8:42 PM 41.0 °F 34.3 °F 34.0 °F 76% 30.12 in 3.0 mi North 11.5 mph - N/A   Haze
8:53 PM 41.0 °F 35.2 °F 34.0 °F 76% 30.14 in 3.0 mi North 9.2 mph - N/A   Haze
9:53 PM 39.0 °F 31.8 °F 33.1 °F 79% 30.17 in 3.0 mi North 11.5 mph - N/A   Haze
10:53 PM 37.9 °F 32.7 °F 32.0 °F 79% 30.18 in 4.0 mi Variable 6.9 mph - N/A   Haze
11:53 PM 37.0 °F 29.3 °F 30.0 °F 76% 30.19 in 6.0 mi NNW 11.5 mph - N/A   Haze